Location: Gallinara
(44.0333°N, 8.2333°E)
Time: 11:41:16
(UTC+00:00)

ADEOS Rocket - Pass Details

Date: 25 September 2020
Orbit: 858 x 1307 km, 98.7° (Epoch: 24 October)

Event Time Altitude Azimuth Distance (km) Brightness Sun altitude
Rises 03:27:37 0° 159° (SSE) 3,969 6.2 -20.3°
Reaches altitude 10° 03:30:18 10° 158° (SSE) 2,950 5.5 -19.9°
Maximum altitude 03:36:55 77° 74° (ENE) 1,042 3.2 -18.7°
Drops below altitude 10° 03:42:54 10° 349° (N) 2,672 5.4 -17.7°
Sets 03:45:14 0° 348° (NNW) 3,574 6.0 -17.3°
